Total_Precipitation_Accumulation
0.37 0.35 0.45 0.66 0.77 0.75 0.75 0.81 1.08 1.10 1.02 0.99 0.97 0.95 0.89 0.90 0.88 0.79 0.74 0.74 0.79 0.84 0.85 0.84 0.83 0.91 0.97 1.06 1.20 1.36 1.51 1.52 1.41 1.24 1.11 1.04 1.00 0.92 0.89 0.89 0.92 1.00 1.05 1.06
0.28 0.25 0.33 0.49 0.59 0.61 0.58 0.58 0.67 0.76 0.78 0.68 0.64 0.67 0.66 0.68 0.63 0.59 0.53 0.49 0.48 0.49 0.50 0.48 0.47 0.48 0.51 0.62 0.80 1.05 1.32 1.34 1.18 1.04 0.89 0.83 0.85 0.88 0.89 0.87 0.90 0.94 0.90 0.92
0.42 0.33 0.33 0.57 0.57 0.51 0.51 0.43 0.45 0.52 0.53 0.48 0.52 0.59 0.60 0.65 0.65 0.52 0.41 0.38 0.36 0.35 0.35 0.34 0.34 0.35 0.39 0.47 0.61 0.80 0.93 0.94 0.87 0.80 0.78 0.84 0.87 0.83 0.85 0.87 0.88 0.89 0.86 0.86
0.45 0.46 0.70 0.87 0.72 0.59 0.55 0.37 0.31 0.33 0.35 0.39 0.50 0.54 0.55 0.51 0.50 0.49 0.38 0.29 0.27 0.27 0.27 0.32 0.34 0.38 0.43 0.50 0.56 0.61 0.65 0.69 0.66 0.65 0.68 0.76 0.80 0.78 0.85 0.90 0.86 0.87 0.91 0.91
0.55 0.64 0.79 0.79 0.67 0.66 0.66 0.52 0.31 0.30 0.30 0.28 0.29 0.30 0.31 0.31 0.29 0.28 0.25 0.22 0.19 0.19 0.20 0.23 0.23 0.25 0.28 0.30 0.32 0.35 0.35 0.38 0.43 0.47 0.49 0.52 0.53 0.62 0.75 0.83 0.87 0.92 0.97 0.97
0.60 0.71 0.82 0.63 0.39 0.40 0.57 0.71 0.28 0.22 0.23 0.20 0.18 0.25 0.25 0.24 0.25 0.22 0.19 0.21 0.20 0.17 0.17 0.20 0.21 0.23 0.21 0.21 0.22 0.23 0.24 0.26 0.30 0.34 0.36 0.39 0.44 0.50 0.58 0.61 0.69 0.83 0.87 0.89
0.56 0.75 0.90 0.63 0.41 0.38 0.68 0.71 0.26 0.17 0.17 0.17 0.18 0.18 0.17 0.20 0.22 0.20 0.19 0.19 0.20 0.19 0.18 0.20 0.23 0.24 0.24 0.23 0.24 0.27 0.29 0.31 0.32 0.32 0.34 0.38 0.43 0.47 0.51 0.57 0.65 0.71 0.76 0.80
0.66 0.99 1.11 0.80 0.58 0.57 0.52 0.27 0.18 0.14 0.14 0.16 0.16 0.15 0.16 0.18 0.19 0.17 0.17 0.18 0.19 0.19 0.21 0.22 0.23 0.24 0.24 0.24 0.26 0.30 0.31 0.33 0.35 0.35 0.37 0.40 0.45 0.50 0.54 0.59 0.61 0.66 0.70 0.74
0.62 0.87 0.82 0.68 0.54 0.43 0.35 0.25 0.16 0.13 0.14 0.18 0.19 0.18 0.20 0.21 0.18 0.18 0.17 0.16 0.16 0.18 0.17 0.18 0.20 0.20 0.21 0.25 0.27 0.30 0.32 0.33 0.36 0.37 0.38 0.37 0.43 0.50 0.54 0.57 0.60 0.64 0.68 0.75
0.37 0.43 0.39 0.36 0.34 0.26 0.23 0.21 0.17 0.17 0.20 0.22 0.24 0.23 0.21 0.21 0.21 0.19 0.18 0.16 0.15 0.17 0.18 0.20 0.21 0.21 0.25 0.27 0.25 0.26 0.32 0.36 0.37 0.38 0.39 0.40 0.43 0.49 0.53 0.57 0.60 0.64 0.70 0.74
0.32 0.29 0.25 0.23 0.23 0.22 0.17 0.15 0.14 0.18 0.21 0.23 0.24 0.24 0.21 0.21 0.22 0.21 0.18 0.18 0.20 0.21 0.21 0.22 0.23 0.26 0.30 0.32 0.29 0.27 0.30 0.33 0.34 0.36 0.40 0.42 0.43 0.46 0.48 0.53 0.64 0.72 0.75 0.78
0.34 0.25 0.25 0.26 0.22 0.18 0.17 0.14 0.13 0.15 0.16 0.18 0.20 0.22 0.22 0.20 0.21 0.23 0.24 0.24 0.25 0.25 0.25 0.25 0.25 0.28 0.32 0.36 0.37 0.36 0.35 0.33 0.33 0.36 0.39 0.41 0.42 0.43 0.47 0.50 0.60 0.64 0.66 0.67
0.22 0.19 0.18 0.18 0.18 0.17 0.15 0.15 0.15 0.16 0.16 0.16 0.17 0.20 0.22 0.22 0.20 0.22 0.25 0.25 0.26 0.27 0.27 0.25 0.24 0.24 0.26 0.30 0.33 0.35 0.36 0.38 0.38 0.39 0.39 0.42 0.42 0.41 0.46 0.48 0.49 0.54 0.57 0.60
0.14 0.15 0.17 0.15 0.15 0.14 0.15 0.16 0.16 0.14 0.14 0.15 0.17 0.18 0.19 0.19 0.18 0.19 0.23 0.25 0.27 0.27 0.26 0.26 0.25 0.25 0.25 0.27 0.32 0.35 0.36 0.40 0.43 0.43 0.44 0.46 0.50 0.53 0.54 0.57 0.57 0.53 0.51 0.53
0.13 0.13 0.15 0.16 0.16 0.15 0.16 0.18 0.18 0.16 0.17 0.18 0.19 0.20 0.19 0.19 0.20 0.21 0.22 0.24 0.25 0.26 0.27 0.29 0.27 0.26 0.28 0.29 0.31 0.32 0.35 0.41 0.45 0.50 0.54 0.52 0.54 0.60 0.61 0.54 0.51 0.52 0.52 0.52
0.15 0.15 0.15 0.17 0.21 0.20 0.18 0.18 0.19 0.18 0.18 0.18 0.21 0.24 0.26 0.24 0.22 0.21 0.22 0.23 0.25 0.28 0.30 0.31 0.31 0.31 0.31 0.30 0.31 0.31 0.35 0.43 0.48 0.50 0.53 0.53 0.53 0.58 0.59 0.57 0.57 0.60 0.61 0.64
0.17 0.18 0.20 0.22 0.24 0.23 0.21 0.22 0.20 0.20 0.21 0.21 0.23 0.25 0.27 0.27 0.25 0.24 0.24 0.25 0.26 0.29 0.31 0.34 0.34 0.35 0.35 0.33 0.34 0.36 0.37 0.40 0.45 0.48 0.50 0.53 0.54 0.58 0.60 0.61 0.62 0.65 0.64 0.69
0.19 0.19 0.20 0.23 0.26 0.25 0.22 0.22 0.21 0.21 0.22 0.24 0.26 0.28 0.30 0.31 0.32 0.31 0.29 0.28 0.29 0.33 0.38 0.40 0.39 0.37 0.35 0.34 0.37 0.39 0.38 0.40 0.42 0.47 0.50 0.54 0.57 0.61 0.67 0.66 0.65 0.68 0.67 0.69
0.23 0.23 0.22 0.24 0.26 0.27 0.26 0.24 0.23 0.23 0.24 0.24 0.25 0.28 0.29 0.30 0.30 0.30 0.30 0.30 0.32 0.36 0.38 0.39 0.41 0.35 0.34 0.36 0.41 0.44 0.46 0.47 0.49 0.51 0.53 0.56 0.59 0.62 0.67 0.68 0.68 0.71 0.73 0.71
0.26 0.25 0.23 0.23 0.23 0.26 0.27 0.26 0.24 0.25 0.27 0.27 0.26 0.26 0.27 0.26 0.26 0.27 0.30 0.33 0.35 0.36 0.34 0.38 0.38 0.38 0.39 0.41 0.45 0.46 0.50 0.55 0.60 0.63 0.64 0.65 0.66 0.70 0.72 0.71 0.72 0.76 0.77 0.77
0.23 0.21 0.21 0.22 0.23 0.24 0.26 0.26 0.25 0.24 0.24 0.26 0.27 0.28 0.28 0.26 0.25 0.26 0.31 0.38 0.38 0.35 0.32 0.37 0.34 0.34 0.40 0.47 0.51 0.50 0.52 0.57 0.61 0.65 0.67 0.68 0.70 0.71 0.74 0.74 0.74 0.78 0.79 0.79
0.22 0.19 0.18 0.18 0.18 0.21 0.23 0.23 0.22 0.20 0.21 0.23 0.26 0.28 0.30 0.31 0.29 0.31 0.35 0.39 0.42 0.44 0.38 0.35 0.33 0.39 0.50 0.55 0.48 0.48 0.51 0.57 0.61 0.66 0.68 0.72 0.75 0.74 0.76 0.79 0.81 0.80 0.82 0.85
0.25 0.22 0.20 0.20 0.19 0.20 0.24 0.24 0.22 0.21 0.22 0.23 0.25 0.28 0.34 0.39 0.41 0.42 0.42 0.39 0.39 0.46 0.44 0.41 0.43 0.52 0.61 0.53 0.46 0.48 0.50 0.54 0.57 0.60 0.67 0.76 0.80 0.80 0.81 0.82 0.82 0.82 0.84 0.89
0.28 0.25 0.23 0.22 0.23 0.26 0.29 0.28 0.27 0.26 0.27 0.29 0.28 0.28 0.30 0.35 0.41 0.41 0.43 0.47 0.50 0.50 0.45 0.48 0.54 0.59 0.61 0.51 0.51 0.52 0.54 0.56 0.57 0.58 0.63 0.68 0.71 0.75 0.79 0.84 0.88 0.88 0.86 0.87
0.29 0.26 0.25 0.25 0.29 0.32 0.31 0.30 0.30 0.29 0.32 0.34 0.34 0.30 0.29 0.32 0.39 0.41 0.39 0.41 0.51 0.55 0.49 0.54 0.61 0.62 0.56 0.53 0.54 0.56 0.58 0.62 0.66 0.67 0.66 0.66 0.67 0.73 0.80 0.83 0.88 0.94 0.95 0.94
0.30 0.29 0.31 0.34 0.35 0.33 0.33 0.36 0.35 0.33 0.33 0.34 0.33 0.30 0.29 0.30 0.32 0.34 0.35 0.38 0.44 0.55 0.59 0.59 0.58 0.59 0.57 0.59 0.61 0.62 0.62 0.64 0.67 0.69 0.65 0.67 0.71 0.76 0.84 0.89 0.90 0.96 0.98 0.96
0.34 0.34 0.35 0.34 0.32 0.33 0.35 0.39 0.39 0.36 0.35 0.37 0.36 0.32 0.32 0.34 0.36 0.38 0.39 0.43 0.48 0.53 0.61 0.67 0.65 0.66 0.67 0.67 0.68 0.69 0.69 0.70 0.72 0.73 0.72 0.74 0.76 0.77 0.83 0.88 0.93 0.98 1.01 1.01